Location: Beuerbach
(48.1459°N, 10.9174°E)
Time: 21:45:21
(UTC+00:00)

SL-16 R/B - Pass Details

Date: 08 August 2024
Orbit: 842 x 845 km, 71.0° (Epoch: 07 September)

Event Time Altitude Azimuth Distance (km) Brightness Sun altitude
Exits shadow 23:29:26 54° 114° (ESE) 1,018 2.4 -26.1°
Maximum altitude 23:29:31 54° 111° (ESE) 1,018 2.4 -26.1°
Drops below altitude 10° 23:35:01 10° 35° (NE) 2,475 5.4 -26.0°
Sets 23:37:31 0° 31° (NNE) 3,414 6.3 -26.0°
